Regional Weather Roundup
Issued by NWS

Home | Current Version | Previous Version | Graphics & Text | Print | Product List | Glossary On
Versions: 1 2 3 4 5 6 7 8 9 10 11 12 13 14 15 16 17 18 19 20 21 22 23 24 25 26 27 28 29 30 31 32 33 34 35 36 37 38 39 40 41 42 43 44 45 46 47 48 49 50
000
ASUS43 KMKX 271659
RWRWI

WISCONSIN REGIONAL WEATHER ROUNDUP
NATIONAL WEATHER SERVICE MILWAUKEE/SULLIVAN WI
1200 PM CDT FRI MAR 27 2015

NOTE: "FAIR" INDICATES FEW OR NO CLOUDS BELOW 12,000 FEET WITH NO
SIGNIFICANT WEATHER AND/OR OBSTRUCTIONS TO VISIBILITY.

WIZ001-002-006>008-014>016-023>028-271800-
NORTHWEST WISCONSIN

CITY           SKY/WX    TMP DP  RH WIND       PRES   REMARKS
SUPERIOR ARPT  SUNNY     26   7  44 S5        30.28F WCI  20
ASHLAND        SUNNY     25   5  42 E6        30.27F WCI  18
HAYWARD        SUNNY     25   5  42 N7        30.22F WCI  17
SIREN          SUNNY     27   4  37 SE3       30.25F
CUMBERLAND     SUNNY     25   5  42 CALM      30.23F
RICE LAKE      SUNNY     27   6  41 N3        30.25F
CHETEK         SUNNY     26   6  44 CALM      30.24F
LADYSMITH      SUNNY     27   7  43 NW7       30.23F WCI  20
EAU CLAIRE     NOT AVBL
MENOMONIE      SUNNY     28   5  37 CALM      30.25F
NEW RICHMOND   SUNNY     27   5  38 CALM      30.26F
OSCEOLA        SUNNY     27   7  43 SW3       30.29F
$$

WIZ003>005-009-010-017-018-271800-
NORTH CENTRAL WISCONSIN

CITY           SKY/WX    TMP DP  RH WIND       PRES   REMARKS
MANITOWISH WTR SUNNY     20   2  47 NE3       30.18F
ARBOR VITAE    SUNNY     22   4  46 NE8       30.18F WCI  12
WOODRUFF       SUNNY     22   4  46 NE8       30.18F WCI  12
RHINELANDER    SUNNY     21   2  43 N8        30.17F WCI  11
EAGLE RIVER    SUNNY     19  -3  36 N7        30.17F WCI  10
LAND O LAKES   SUNNY     19  -3  38 N12       30.18F WCI   7
PHILLIPS       SUNNY     23   6  48 CALM      30.18F
TOMAHAWK       SUNNY     22   3  44 CALM      30.19F
MEDFORD        SUNNY     22   7  53 CALM      30.19F
MERRILL        SUNNY     22   4  44 N7        30.19F WCI  14
$$

WIZ029-030-035-036-043>047-271800-
CENTRAL WISCONSIN

CITY           SKY/WX    TMP DP  RH WIND       PRES   REMARKS
WAUSAU         SUNNY     23   7  50 N7        30.19F WCI  15
MOSINEE        MOSUNNY   21   9  58 N5        30.21F WCI  15
MARSHFIELD     SUNNY     24   9  52 NW5       30.20F WCI  18
STEVENS POINT  SUNNY     21   6  51 NE6G16    30.22S WCI  14
WAUPACA        SUNNY     29   2  32 N7        30.22F WCI  21
WAUTOMA        NOT AVBL
WISC RAPIDS    MOSUNNY   24   7  48 NW13      30.23F WCI  12
CAMP DOUGLAS   NOT AVBL
$$

WIZ011>013-019>022-031-037>040-048>050-271800-
NORTHEAST WISCONSIN

CITY           SKY/WX    TMP DP  RH WIND       PRES   REMARKS
ANTIGO         SUNNY     19   3  48 NE8       30.17F WCI   9
SHAWANO        SUNNY     27   5  39 N6        30.22F WCI  20
OCONTO         SUNNY     22   4  46 N8G16     30.22F WCI  13
STURGEON BAY   MOSUNNY   18   7  62 N17       30.23F WCI   2
GREEN BAY      MOSUNNY   25   7  46 N10       30.21F WCI  15
MANITOWOC      NOT AVBL
APPLETON       NOT AVBL
CLINTONVILLE   SUNNY     27   3  36 NW9       30.22F WCI  17
OSHKOSH        SUNNY     26   7  44 N14G23    30.20F WCI  14
$$

WIZ032>034-041-042-053>061-271800-
SOUTHWEST WISCONSIN

CITY           SKY/WX    TMP DP  RH WIND       PRES   REMARKS
LA CROSSE      SUNNY     30  10  43 W3        30.26F
SPARTA         SUNNY     28   5  37 NE7       30.25F WCI  21
VIROQUA        SUNNY     26   9  49 N5        30.22S WCI  20
BOSCOBEL       SUNNY     29   8  41 N9        30.24F WCI  20
PRAIRIE DU CHI SUNNY     28   6  39 NW9       30.26F WCI  19
PLATTEVILLE    SUNNY     27  12  54 NW12      30.22S WCI  16
$$

WIZ056-057-062-063-064-067-068-271800-
SOUTH CENTRAL WISCONSIN

CITY           SKY/WX    TMP DP  RH WIND       PRES   REMARKS
REEDSBURG      SUNNY     26   5  39 N13       30.22F WCI  15
BARABOO/DELLS  SUNNY     27   2  33 N8        30.21S WCI  19
LONE ROCK      NOT AVBL
MINERAL POINT  MOSUNNY   28  10  47 N8G17     30.20F WCI  20
MADISON        SUNNY     28   5  37 N14G22    30.20F WCI  17
MIDDLETON      SUNNY     28   4  36 N14G20    30.21S WCI  17
WATERTOWN      SUNNY     27   5  40 N14       30.19S WCI  15
MONROE         FAIR      28  12  50 N13       30.19S WCI  18
JANESVILLE     NOT AVBL
$$

WIZ051-052-058>065-066-070>072-271800-
SOUTHEAST WISCONSIN

CITY           SKY/WX    TMP DP  RH WIND       PRES   REMARKS
MILWAUKEE      MOSUNNY   26   9  48 NE15G22   30.18F WCI  14
WAUKESHA       MOSUNNY   25   3  39 N12G20    30.18F WCI  14
MILWAUKEE/TIMM NOT AVBL
RACINE         MOSUNNY   25  10  53 N15G23    30.20S WCI  13
BURLINGTON     SUNNY     25   3  39 N14       30.17F WCI  14
KENOSHA        MOSUNNY   27   9  46 N15       30.18S WCI  15
FOND DU LAC    SUNNY     26   8  46 NE15G22   30.21F WCI  14
SHEBOYGAN      PTSUNNY   25   8  48 N14G24    30.19S WCI  13
WEST BEND      PTSUNNY   27   5  39 N8        30.18F WCI  18
JUNEAU         SUNNY     24   4  42 N14       30.20F WCI  12
$$

LSZ147-162-271800-
LAKE SUPERIOR

STATION/POSITION TIME  TEMP    WIND        PRES    WAVE
                       AIR SEA DIR/SP/G            HT/PER
                 (UTC) (F)     (DEG/KT/KT) (MB)    (FT/S)
DEVILS ISLAND    1600   19      50/  4/  6 1027.4F
PORT WING        1640   23      20/  6/ 10 1025.7F
SAXON HARBOR     1600   22      10/  5/  8 1025.4
$$

LMZ867-665-643>646-271800-
LAKE MICHIGAN

STATION/POSITION TIME  TEMP    WIND        PRES    WAVE
                       AIR SEA DIR/SP/G            HT/PER
                 (UTC) (F)     (DEG/KT/KT) (MB)    (FT/S)
NORTHPORT PIER   1614   15     350/ 18/ 25 1023.7F
KEWAUNEE LAKESHO 1600   20      10/ 10/ 17 1022.4R
SHEBOYGAN LAKESH 1600   21     360/ 18/ 22 1024.0R
PORT WASHINGTON  1600   23     330/  6/ 15 1023.4
MILWAUKEE LAKESH 1600   23      20/ 15/ 20   N/A
KENOSHA   LAKESH 1600   23     350/ 16/ 25 1022.0R
$$

TC  - TEMPERATURE IN CELSIUS
VSB - VISIBILITY IN STATUTE MILES
WCI - WIND CHILL INDEX
HX  - HEAT INDEX




USA.gov is the U.S. government's official web portal to all federal, state and local government web resources and services.